Weather History for Rome, NY

Change the Weather History Date:

Saturday, November 2, 2013

  Actual Average Record
Temperature  
Mean Temperature 45 °F -  
Max Temperature 54 °F 53 °F 74 °F (1982)
Min Temperature 37 °F 34 °F 19 °F (1993)
Degree Days  
Heating Degree Days 20    
Moisture  
Dew Point 40 °F    
Average Humidity 80    
Maximum Humidity 92    
Minimum Humidity 59    
Precipitation  
Precipitation 0.04 in - - ()
Sea Level Pressure  
Sea Level Pressure 29.72 in    
Wind  
Wind Speed 6 mph (NW)    
Max Wind Speed 13 mph    
Max Gust Speed 21 mph    
Visibility 10 miles    
Events Rain    
Averages and records for this station are not official NWS values.
T = Trace of Precipitation, MM = Missing Value Source: NWS Daily Summary

Daily Weather History Graph

Daily Weather History Graph

Search for Another Location

Airport:

Trip Planner

Search our weather history database for the weather conditions in past years. The results will help you decide how hot, cold, wet, or windy it might be!

Date:

Astronomy

Nov. 02, 2013 Rise Set
Actual Time 7:38 AM EDT 5:51 PM EDT
Civil Twilight 7:08 AM EDT 6:21 PM EDT
Nautical Twilight 6:34 AM EDT 6:55 PM EDT
Astronomical Twilight 6:01 AM EDT 7:28 PM EDT
Moon 6:31 AM EDT (11/2) 5:22 PM EDT (11/2)
Length of Visible Light 11h 12m
Length of Day
10h 13m
Waning Crescent, 1% of the Moon is Illuminated
Nov 2
Waning Crescent
Nov 3
New
Nov 10
First Quarter
Nov 17
Full
Nov 25
Last Quarter

Hourly Weather History & Observations

Time (EDT) Temp. Windchill Dew Point Humidity Pressure Visibility Wind Dir Wind Speed Gust Speed Precip Events Conditions
12:53 AM 48.0 °F - 42.1 °F 80% 29.67 in 10.0 mi NW 3.5 mph - 0.00 in   Overcast
1:53 AM 46.9 °F - 42.1 °F 83% 29.66 in 10.0 mi SE 3.5 mph - N/A   Mostly Cloudy
2:53 AM 46.0 °F - 41.0 °F 83% 29.65 in 10.0 mi Calm Calm - N/A   Scattered Clouds
3:53 AM 43.0 °F 40.3 °F 39.9 °F 89% 29.65 in 10.0 mi Variable 4.6 mph - N/A   Clear
4:53 AM 42.1 °F 40.2 °F 39.9 °F 92% 29.65 in 10.0 mi ENE 3.5 mph - N/A   Overcast
5:53 AM 43.0 °F 41.3 °F 39.9 °F 89% 29.66 in 9.0 mi ESE 3.5 mph - N/A   Overcast
6:53 AM 44.1 °F 40.8 °F 41.0 °F 89% 29.66 in 10.0 mi ESE 5.8 mph - N/A   Overcast
7:53 AM 44.1 °F 40.8 °F 41.0 °F 89% 29.66 in 10.0 mi ESE 5.8 mph - N/A   Overcast
8:53 AM 44.1 °F 41.5 °F 41.0 °F 89% 29.68 in 10.0 mi SSE 4.6 mph - N/A   Overcast
9:53 AM 48.0 °F - 43.0 °F 83% 29.66 in 10.0 mi SE 3.5 mph - N/A   Overcast
10:53 AM 50.0 °F - 41.0 °F 71% 29.65 in 10.0 mi SE 3.5 mph - N/A   Mostly Cloudy
11:53 AM 53.1 °F - 42.1 °F 66% 29.67 in 10.0 mi West 11.5 mph - N/A   Overcast
12:26 PM 51.1 °F - 37.9 °F 61% 29.67 in 10.0 mi West 12.7 mph - N/A   Overcast
12:53 PM 52.0 °F - 39.0 °F 61% 29.67 in 10.0 mi West 10.4 mph - N/A   Overcast
1:53 PM 53.1 °F - 39.0 °F 59% 29.66 in 10.0 mi West 11.5 mph 20.7 mph N/A   Overcast
2:53 PM 52.0 °F - 39.0 °F 61% 29.66 in 10.0 mi West 9.2 mph - N/A   Overcast
3:53 PM 51.1 °F - 41.0 °F 68% 29.68 in 10.0 mi WNW 11.5 mph - N/A   Overcast
4:53 PM 48.9 °F - 43.0 °F 80% 29.70 in 10.0 mi NW 9.2 mph - 0.00 in Rain Light Rain
5:14 PM 48.0 °F - 44.1 °F 86% 29.71 in 10.0 mi WNW 6.9 mph - 0.00 in Rain Light Rain
5:39 PM 48.0 °F - 44.1 °F 86% 29.72 in 10.0 mi West 6.9 mph - 0.01 in Rain Light Rain
5:53 PM 46.9 °F - 44.1 °F 90% 29.73 in 10.0 mi West 5.8 mph - 0.01 in Rain Light Rain
6:22 PM 46.0 °F 42.5 °F 43.0 °F 89% 29.73 in 9.0 mi NNE 6.9 mph - 0.01 in Rain Light Rain
6:53 PM 43.0 °F 36.8 °F 39.0 °F 86% 29.76 in 10.0 mi NNE 11.5 mph - 0.02 in Rain Light Rain
7:53 PM 39.9 °F 33.9 °F 36.0 °F 86% 29.79 in 10.0 mi North 9.2 mph - 0.00 in Rain Light Rain
8:53 PM 39.0 °F - 34.0 °F 82% 29.83 in 10.0 mi North - - 0.01 in Rain Light Rain
9:53 PM 39.0 °F 32.3 °F 33.1 °F 79% 29.87 in 10.0 mi North 10.4 mph 19.6 mph 0.00 in   Overcast
10:53 PM 37.9 °F 33.5 °F 33.1 °F 83% 29.90 in 10.0 mi Variable 5.8 mph - N/A   Overcast
11:45 PM 37.9 °F 31.5 °F 32.0 °F 79% 29.91 in 10.0 mi NW 9.2 mph - N/A   Overcast
11:53 PM 37.9 °F 32.1 °F 32.0 °F 79% 29.92 in 10.0 mi NW 8.1 mph - N/A   Overcast